Regional Weather Roundup
Issued by NWS

Home | Current Version | Previous Version | Graphics & Text | Print | Product List | Glossary On
Versions: 1 2 3 4 5 6 7 8 9 10 11 12 13 14 15 16 17 18 19 20 21 22 23 24 25 26 27 28 29 30 31 32 33 34 35 36 37 38 39 40 41 42 43 44 45 46 47 48 49 50
000
ASUS44 KMEG 201200
RWRTN
TENNESSEE HOURLY STATE WEATHER ROUNDUP
NATIONAL WEATHER SERVICE MEMPHIS TN
600 AM CST SAT DEC 20 2014

TNZ002-004-019-021-049-052-054-088>092-201300-
WEST TENNESSEE

CITY           SKY/WX    TMP DP  RH WIND       PRES   REMARKS
MEMPHIS INTL   CLOUDY    39  31  72 NE5       30.24R
NWS MEMPHIS      N/A     37 N/A N/A MISG        N/A
JACKSON        CLOUDY    36  30  79 E3        30.25R
DYERSBURG      CLOUDY    37  21  52 NE6       30.27R WCI  33
UNION CITY     CLOUDY    34  28  80 NE5       30.25R WCI  30
PARIS          CLOUDY    30  27  86 NE6       30.25R WCI  24
LEXINGTON      CLOUDY    30  28  93 CALM      30.23R
SAVANNAH       CLEAR     28  28 100 CALM      30.24R
$$

TNZ008-025-027-028-033-062-065-066-201300-
NORTH MIDDLE TENNESSEE

CITY           SKY/WX    TMP DP  RH WIND       PRES   REMARKS
NASHVILLE      CLEAR     31  26  82 N7        30.26R WCI  24
CLARKSVILLE    CLOUDY    33  27  78 NE3       30.26R
COOKEVILLE     CLEAR     32  28  86 CALM      30.20R
CROSSVILLE     CLOUDY    34  29  82 E3        30.17R
$$

TNZ061-075-076-078-094-096-097-201300-
SOUTH MIDDLE TENNESSEE

CITY           SKY/WX    TMP DP  RH WIND       PRES   REMARKS
FAYETTEVILLE   CLEAR     28  27  93 MISG      30.21R
TULLAHOMA      CLEAR     28  27  93 CALM      30.22R
WINCHESTER     CLEAR     28  28 100 CALM      30.22R
SHELBYVILLE    CLEAR     30  27  86 N5        30.24R WCI  25
$$

TNZ017-018-042-046-047-201300-
NORTHEAST TENNESSEE

CITY           SKY/WX    TMP DP  RH WIND       PRES   REMARKS
TRI CITIES     CLOUDY    34  31  88 CALM      30.18R
ELIZABETHTON   DRIZZLE   34  30  86 CALM      30.17R
$$

TNZ012-013-036-069-073-074-201300-
CENTRAL EAST TENNESSEE

CITY           SKY/WX    TMP DP  RH WIND       PRES   REMARKS
KNOXVILLE      LGT RAIN  37  32  82 N5        30.19R WCI  33
OAK RIDGE      CLOUDY    39  32  76 CALM      30.21R
GATLINBURG     CLOUDY    36  34  93 CALM      30.19R
$$

TNZ083-085-099-201300-
SOUTHEAST TENNESSEE

CITY           SKY/WX    TMP DP  RH WIND       PRES   REMARKS
CHATTANOOGA    CLOUDY    41  34  76 NW3       30.20R
$$

SKY/WX REPORTED AS FAIR MEANS FEW OR NO CLOUDS BELOW
12 THOUSAND FEET.




USA.gov is the U.S. government's official web portal to all federal, state and local government web resources and services.